This demonstration page uses our WeatherBlox Daily Observations layout. Learn more.

Left ArrowRight Arrow

Hourly Observations for March 18, 2015

Temp ( °F °C ) Dew Point ( °F °C ) Humidity (%) Winds ( mph kmh ) Pressure ( in mb ) Visibility ( mi km ) Precip ( " mm )
12:53 am 00:53 undefined 33 0.6 33 0.6 100 100 E 8 13 30.05 1018 10 16 N/A
1:53 am 01:53 Mostly Clear with Light Rain 33 0.6 33 0.6 100 100 E 7 11 30.03 1017 10 16 N/A
2:53 am 02:53 undefined 34 1.1 33 0.6 97 97 E 5 7 30.03 1017 10 16 N/A
3:53 am 03:53 undefined 34 1.1 33 0.6 97 97 N N/A 30.03 1017 10 16 N/A
4:53 am 04:53 Mostly Clear with Light Rain 33 0.6 33 0.6 100 100 WSW 5 7 30.03 1017 5 8 0.01 0.25
5:53 am 05:53 Mostly Clear with Mist and Fog 33 0.6 33 0.6 100 100 SW 6 9 30.04 1017 3 4 N/A
6:07 am 06:07 Mostly Clear with Mist and Fog 33 0.6 33 0.6 100 100 SW 6 9 30.06 1018 1 2 N/A
6:27 am 06:27 Mostly Clear with Mist and Fog 33 0.6 33 0.6 100 100 WSW 5 7 30.06 1018 2 3 N/A
6:38 am 06:38 Partly Cloudy with Isolated Snow Showers 34 1 34 1 100 100 WSW 5 7 30.06 1018 3 5 N/A
6:53 am 06:53 Partly Cloudy with Isolated Snow Showers 33 0.6 33 0.6 100 100 WSW 5 7 30.05 1018 3 5 N/A
7:53 am 07:53 Partly Cloudy with Isolated Snow Showers 33 0.6 33 0.6 100 100 SW 5 7 30.05 1018 3 5 N/A
8:28 am 08:28 Partly Cloudy with Light Rain 34 1 34 1 100 100 SW 6 9 30.06 1018 3 4 N/A
8:53 am 08:53 Partly Cloudy with Mist and Fog 34 1.1 34 1.1 100 100 SW 7 11 30.04 1017 2 3 N/A
9:53 am 09:53 Partly Cloudy with Mist and Fog 35 1.7 35 1.7 100 100 SW 6 9 30.04 1017 2 3 N/A
10:06 am 10:06 Partly Cloudy with Mist and Fog 35 1.7 35 1.7 100 100 WSW 7 11 30.06 1018 5 8 N/A
10:53 am 10:53 undefined 36 2.2 36 2.2 100 100 WSW 8 13 30.04 1017 10 16 N/A
11:53 am 11:53 undefined 38 3.3 36 2.2 93 93 SW 10 17 30.04 1017 10 16 N/A
12:53 pm 12:53 undefined 39 3.9 36 2.2 89 89 WSW 12 19 30.04 1017 10 16 N/A
1:04 pm 13:04 Cloudy 39 4 36 2 87 87 WSW 12 19 30.03 1017 10 16 N/A
1:13 pm 13:13 Cloudy 39 3.9 36 2.2 89 89 WSW 12 19 30.03 1017 10 16 N/A
1:53 pm 13:53 Cloudy with Light Rain 38 3.3 35 1.7 89 89 W 15 24 30.04 1017 8 13 N/A
2:08 pm 14:08 Cloudy with Light Rain 37 3 36 2 93 93 WNW 14 22 30.06 1018 6 10 N/A
2:34 pm 14:34 Cloudy with Light Rain 37 2.8 36 2.2 96 96 WNW 14 22 30.06 1018 10 16 0.02 0.51
2:53 pm 14:53 Cloudy with Light Rain 38 3.3 35 1.7 89 89 WNW 13 20 30.04 1017 10 16 0.02 0.51
3:07 pm 15:07 Cloudy with Light Rain 37 2.8 35 1.7 93 93 WNW 14 22 30.06 1018 10 16 0.01 0.25
3:13 pm 15:13 Cloudy with Light Rain 37 2.8 35 1.7 93 93 WNW 14 22 30.06 1018 10 16 0.01 0.25
3:22 pm 15:22 Cloudy with Light Rain 37 3 36 2 93 93 WNW 13 20 30.06 1018 10 16 N/A
3:53 pm 15:53 Cloudy with Light Rain 38 3.3 36 2.2 93 93 W 16 26 30.05 1018 10 16 0.02 0.51
4:15 pm 16:15 Cloudy with Light Rain 37 2.8 35 1.7 93 93 WNW 18 30 30.09 1019 10 16 N/A
4:23 pm 16:23 Cloudy with Light Rain 36 2.2 34 1.1 93 93 WNW 20 31 30.09 1019 10 16 0.01 0.25
4:37 pm 16:37 Cloudy with Light Rain 37 2.8 35 1.7 93 93 WNW 14 22 30.09 1019 10 16 0.01 0.25
4:48 pm 16:48 Cloudy with Light Rain 36 2 34 1 93 93 WNW 14 22 30.09 1019 10 16 N/A
4:53 pm 16:53 Cloudy with Light Rain 36 2.2 34 1.1 93 93 WNW 13 20 30.06 1018 10 16 0.01 0.25
5:00 pm 17:00 Cloudy with Light Rain 36 2 36 2 100 100 W 15 24 30.09 1019 10 16 N/A
5:08 pm 17:08 Cloudy with Light Rain 36 2 34 1 93 93 WNW 13 20 30.09 1019 10 16 N/A
5:40 pm 17:40 Cloudy with Light Rain 36 2 34 1 93 93 WNW 13 20 30.09 1019 10 16 N/A
5:53 pm 17:53 Cloudy with Light Rain 36 2.2 34 1.1 93 93 WNW 15 24 30.07 1018 10 16 0.01 0.25
6:53 pm 18:53 Cloudy 36 2.2 34 1.1 93 93 WNW 10 17 30.08 1019 10 16 N/A
7:53 pm 19:53 Cloudy 35 1.7 33 0.6 93 93 W 7 11 30.09 1019 10 16 N/A
8:53 pm 20:53 Cloudy 35 1.7 33 0.6 93 93 W 6 9 30.11 1020 10 16 N/A
9:53 pm 21:53 Cloudy 33 0.6 32 undefined 96 96 SSW 8 13 30.11 1020 10 16 N/A
10:53 pm 22:53 Cloudy 34 1.1 32 undefined 92 92 SW 9 15 30.11 1020 10 16 N/A
11:32 pm 23:32 Partly Cloudy 32 undefined 31 -0.6 96 96 SW 8 13 30.15 1021 10 16 N/A
11:53 pm 23:53 Clear 31 -0.6 30 -1.1 96 96 SW 10 17 30.11 1020 10 16 N/A

Powered by AerisWeather